Simultaneous Nadir Overpasses (SNOs) Predictions

Prediction of SNOs between GOES-16 and AQUA Satellite Orbit:

Table of predicted SNOs for the next 14.0 days since TLE Epoch: 10/24/2020
Index Date Time (GOES-16) GOES-16 Lat,Lon AQUA Lat,Lon Distance(km) Time Diff (sec)
1 10/24/2020 18:29:09 -0.01, -75.18 0.40, -73.14 231.56 80
2 10/25/2020 06:50:25 0.01, -75.17 0.70, -78.30 355.76 80
3 10/27/2020 06:38:14 0.00, -75.18 0.06, -75.34 19.39 80
4 10/29/2020 06:23:23 0.01, -75.19 -0.57, -72.39 318.18 80
5 10/29/2020 18:44:46 -0.00, -75.20 -0.51, -77.59 271.05 80
6 10/31/2020 18:35:15 -0.01, -75.22 0.13, -74.63 67.12 80
7 11/02/2020 18:23:04 -0.01, -75.24 0.73, -71.67 405.57 80
8 11/03/2020 06:44:20 0.00, -75.25 0.32, -76.84 180.89 80
9 11/05/2020 06:29:28 0.00, -75.27 -0.28, -73.88 157.77 80
10 11/05/2020 18:50:52 -0.00, -75.28 -0.79, -79.08 431.40 80
